Regional Weather Roundup
Issued by NWS

Home | Current Version | Previous Version | Text Only | Print | Product List | Glossary Off
Versions: 1 2 3 4 5 6 7 8 9 10 11 12 13 14 15 16 17 18 19 20 21 22 23 24 25 26 27 28 29 30 31 32 33 34 35 36 37 38 39 40 41 42 43 44 45 46 47 48 49 50

000
ASUS45 KPSR 301010
RWRAZ

ARIZONA HOURLY REGIONAL WEATHER ROUNDUP
NATIONAL WEATHER SERVICE PHOENIX AZ
300 AM MST TUE JUN 30 2015

NOTE: FAIR INDICATES FEW OR NO CLOUDS BELOW 12,000 FEET WITH NO
SIGNIFICANT WEATHER AND/OR OBSTRUCTIONS TO VISIBILITY.

AZZ001>003-036-301100-
NORTHWEST ARIZONA

CITY           SKY/WX    TMP DP  RH WIND       PRES   REMARKS
BULLHEAD CITY  CLOUDY   100  52  19 W5        29.76F
KINGMAN        CLOUDY    78  55  44 SE13      30.00F
$$

AZZ004>008-015-016-018-301100-
NORTH CENTRAL ARIZONA

CITY           SKY/WX    TMP DP  RH WIND       PRES   REMARKS
GRAND CANYON   PTCLDY    52  49  89 CALM      30.30S
WILLIAMS       CLOUDY    57  54  88 S5        30.38R
PRESCOTT       MOCLDY    67  60  78 CALM      30.16F
FLAGSTAFF      CLOUDY    67  46  47 CALM      30.31S
PAYSON         PTCLDY    72  50  46 NE6       30.16F
PAGE           PTCLDY    82  48  30 SW5       30.05S
$$

AZZ009>014-017-301100-
NORTHEAST ARIZONA

CITY           SKY/WX    TMP DP  RH WIND       PRES   REMARKS
WINSLOW        MOCLDY    70  49  47 SE3       30.15R
SAINT JOHNS    MOCLDY    61  57  87 CALM      30.22R
WINDOW ROCK    PTCLDY    62  50  64 CALM      30.28S
SHOW LOW       PTCLDY    59  48  67 SE3       30.28R
$$

AZZ023-301100-
GREATER PHOENIX AREA

CITY           SKY/WX    TMP DP  RH WIND       PRES   REMARKS
PHOENIX        PTCLDY    87  73  62 E7        29.81S
BUCKEYE          N/A     86  59  39 NW3       29.83R
LUKE AFB       CLEAR     88  64  45 NE6       29.81R
DEER VALLEY    CLEAR     88  63  43 CALM      29.84S
SCOTTSDALE     CLEAR     84  71  65 CALM      29.86S
MESA-GATEWAY   CLEAR     84  63  48 SE3       29.87S
$$

AZZ027-028-301100-
SOUTHWEST MARICOPA COUNTY AND PINAL COUNTY

CITY           SKY/WX    TMP DP  RH WIND       PRES   REMARKS
CASA GRANDE    CLEAR     86  63  45 CALM      29.85R
GILA BEND      FAIR      90  60  36 SW6       29.80S
$$

AZZ503-504-507>509-301100-
SOUTHEAST ARIZONA

CITY           SKY/WX    TMP DP  RH WIND       PRES   REMARKS
TUCSON         CLEAR     78  65  63 S6        29.99R
DAVIS-MONTHAN  PTCLDY    77  64  62 SE8       29.98R
NOGALES        LGT RAIN  70  61  73 CALM      30.08R
SIERRA VISTA   LGT RAIN  73  59  60 N5        30.17R
DOUGLAS        CLOUDY    76  55  48 E17G28    30.11F
SAFFORD        PTCLDY    79  56  45 E5        30.03R
$$

AZZ020-021-025-026-031-301100-
SOUTHWEST ARIZONA

CITY           SKY/WX    TMP DP  RH WIND       PRES   REMARKS
YUMA           PTCLDY    87  66  49 S9        29.77F
$$

CAZ031-033-041-043-047-048-061-301100-
SOUTHERN CALIFORNIA

CITY           SKY/WX    TMP DP  RH WIND       PRES   REMARKS
DOWNTOWN L.A.  CLEAR     68  59  73 CALM      29.88R
L.A. AIRPORT   PTCLDY    66  61  84 CALM      29.88S
SAN DIEGO      PTCLDY    68  62  81 CALM      29.88F
BURBANK        PTCLDY    73  57  57 SE6       29.88S
ONTARIO        PTCLDY    71  58  63 CALM      29.88F
RIVERSIDE      PTCLDY    74  60  61 CALM      29.89F
PALM SPRINGS   MOCLDY    89  57  33 CALM      29.80S
EL CENTRO NAS  CLEAR     84  68  58 SE6       29.75F
IMPERIAL       PTCLDY    85  69  58 SE9       29.73F
BLYTHE         MOCLDY    92  63  38 S9        29.77S
NEEDLES        CLOUDY   100  53  20 SW8       29.78F
$$

NVZ020-UTZ003-301100-
SOUTHERN NEVADA-UTAH

CITY           SKY/WX    TMP DP  RH WIND       PRES   REMARKS
LAS VEGAS      CLOUDY    94  55  26 S15       29.86S
SALT LAKE CITY MOCLDY    79  53  40 S6        30.03F
$$

NMZ009-TXZ055-301100-
NEW MEXICO-WEST TEXAS

CITY           SKY/WX    TMP DP  RH WIND       PRES   REMARKS
ALBUQUERQUE    PTCLDY    73  48  41 E14       30.23R
EL PASO        PTCLDY    73  59  61 N6        30.08S
$$


........................KEY........................
SKY/WX - SKY CONDITION/WEATHER
TMP    - TEMPERATURE IN FAHRENHEIT
DP     - DEW POINT IN FAHRENHEIT
RH     - RELATIVE HUMIDITY IN PERCENT
WIND   - DIRECTION AND SPEED IN MILES PER HOUR (MPH)
VRB    - VARIABLE WIND DIRECTION
PRES   - MEAN SEA LEVEL PRESSURE IN INCHES OF MERCURY
         F - FALLING PRESSURE   R - RISING PRESSURE
         S - STEADY PRESSURE
VSB    - VISIBILITY IN MILES
HX     - HEAT INDEX IN FAHRENHEIT
WCI    - WIND CHILL INDEX IN FAHRENHEIT
TC     - TEMPERATURE IN CELSIUS WHICH IS ALSO KNOWN AS
         TEMPERATURE IN CENTIGRADE
AFB    - AIR FORCE BASE
         LUKE AFB IS LUKE AIR FORCE BASE
         DAVIS-MONTHAN IS DAVIS-MONTHAN AIR FORCE BASE
NAS    - NAVAL AIR STATION
         EL CENTRO NAS IS EL CENTRO NAVAL AIR STATION
N/A    - NOT AVAILABLE




USA.gov is the U.S. government's official web portal to all federal, state and local government web resources and services.